Lid_Strength_Index
18 16 17 16 14 16 14 16 14 11 10 11 10 9 9 9 9 9 9 9 8 8 9 8 7 7 8
19 18 18 16 17 18 16 15 16 11 11 10 10 10 9 9 9 9 9 9 10 10 9 9 7 7 7
20 19 19 17 20 19 18 18 16 13 11 10 10 10 9 9 9 9 9 10 10 10 9 9 8 8 8
19 19 19 20 19 20 21 19 17 15 13 12 10 10 9 9 9 9 10 10 10 10 10 9 9 9 8
19 19 19 20 19 19 19 19 19 18 18 17 15 15 14 11 11 11 11 11 11 11 10 10 9 9 9
19 19 19 18 19 19 19 21 21 18 18 18 17 16 16 16 14 13 12 12 11 11 10 10 10 10 10
18 18 18 18 18 19 19 19 19 18 18 19 18 18 16 16 13 12 12 12 11 11 10 10 10 10 10
16 17 17 16 17 17 18 18 18 17 17 19 17 18 16 16 13 12 12 11 11 11 11 11 11 11 11
13 13 14 13 15 16 19 20 20 18 16 17 18 17 17 16 16 12 12 11 11 11 11 11 11 11 11
14 13 12 13 12 14 16 18 18 18 17 17 17 17 19 17 16 16 16 13 12 12 11 11 11 13 15
15 15 15 15 15 13 14 16 17 17 16 16 17 18 19 19 18 17 17 17 17 15 13 12 11 12 16
15 16 16 16 16 15 15 14 14 14 15 15 18 17 18 19 19 18 18 18 18 18 17 15 13 12 12
15 15 15 15 15 15 15 15 15 14 14 14 15 16 17 18 18 18 18 17 17 17 17 17 17 17 17
14 13 13 14 14 14 15 15 16 16 15 15 15 15 16 16 17 17 18 19 18 17 17 17 16 16 16
14 14 15 15 15 14 15 15 16 16 16 15 14 14 15 16 17 17 17 18 17 17 17 17 17 16 16
16 15 16 15 15 15 15 16 17 17 17 16 16 16 16 15 14 16 16 17 16 17 17 18 18 16 16
16 17 16 16 16 17 17 16 17 17 17 16 17 18 20 21 18 14 17 16 16 17 17 17 17 17 16